Location: Street
(51.1247°N, 2.7429°W)
Time: 15:17:26
(UTC+00:00)

N. Korean satellite - Pass Details

Date: 29 October 2020
Orbit: 453 x 504 km, 97.2° (Epoch: 29 November)

Event Time Altitude Azimuth Distance (km) Brightness Sun altitude
Rises 06:02:44 0° 11° (N) 2,487 10.2 -9.3°
Reaches altitude 10° 06:04:47 10° 9° (N) 1,604 9.2 -9.0°
Maximum altitude 06:08:12 71° 286° (WNW) 486 6.3 -8.5°
Drops below altitude 10° 06:11:35 10° 202° (SSW) 1,588 9.1 -8.0°
Sets 06:13:37 0° 200° (SSW) 2,458 10.1 -7.6°
